Flag for Canada Weather past 2 weeks in Brandon, Manitoba, Canada

Now
39 °F

Scattered clouds.


Feels Like: 32 °F
Forecast: 35 / 55 °F
Wind: 10 mph from Northeast

Location: Brandon

Current Time: Apr 25, 2015 at 10:02:48 AM

Latest Report: Apr 25, 2015 at 9:00 AM


Visibility: 15 mi

Pressure: 29.95 "Hg

Humidity: 81%

Dew point: 34 °F

Location of BrandonLocation

Historic Weather in Brandon — Graph

°F

Brandon temperature yesterday

Maximum temperature yesterday: 61 °F (at 6:00 PM)
Minimum temperature yesterday: 37 °F (at 6:00 AM)
Average temperature yesterday: 47 °F

Past Weeks' High & Low Weather Summary

 TemperatureHumidityPressure
High70 °F (Apr 15, 3:00 PM)100% (Apr 25, 7:00 AM)30.22 "Hg (Apr 25, 7:00 AM)
Low19 °F (Apr 23, 4:00 AM)17% (Apr 22, 5:00 PM)29.43 "Hg (Apr 12, 1:00 AM)
Average44 °F57%29.93 "Hg
* Reported Apr 10 8:00 AM — Apr 25 8:00 AM, Brandon, Weather by CustomWeather, © 2015

Note: Actual official high and low records may vary slightly from our data, if they occured in-between our weather recording intervals... More about our weather records

Advertising

Brandon weather history for previous 24 hours

 ConditionsComfort  
Time TempWeatherWind HumidityBarometerVisibility
8:00 AM
Sat, Apr 25
36 °FScattered clouds.7 mph87%29.95 "Hg12 mi
7:00 AM28 °FPassing clouds.7 mph100%29.93 "Hg15 mi
6:00 AM28 °FPassing clouds.7 mph93%29.91 "Hg15 mi
5:00 AM30 °FClear.7 mph93%29.90 "Hg15 mi
4:00 AM30 °FClear.8 mph86%29.88 "Hg15 mi
3:00 AM32 °FClear.8 mph93%29.88 "Hg15 mi
2:00 AM32 °FPassing clouds.6 mph93%29.88 "Hg15 mi
1:00 AM41 °FPassing clouds.9 mph76%29.86 "Hg15 mi
12:00 AM37 °FPassing clouds.9 mph81%29.86 "Hg15 mi
11:00 PM
Fri, Apr 24
39 °FPassing clouds.10 mph75%29.85 "Hg15 mi
10:00 PM45 °FPartly cloudy.8 mph66%29.84 "Hg15 mi
9:00 PM50 °FScattered clouds.12 mph58%29.82 "Hg15 mi
8:00 PM55 °FPartly sunny.13 mph47%29.78 "Hg15 mi
7:00 PM57 °FBroken clouds.15 mph44%29.76 "Hg15 mi
6:00 PM61 °FBroken clouds.15 mph39%29.75 "Hg15 mi
5:00 PM59 °FBroken clouds.13 mph45%29.75 "Hg15 mi
4:00 PM59 °FPartly sunny.14 mph42%29.75 "Hg15 mi
3:00 PM57 °FPartly sunny.12 mph44%29.76 "Hg15 mi
2:00 PM55 °FScattered clouds.13 mph44%29.77 "Hg15 mi
1:00 PM52 °FPartly sunny.12 mph47%29.79 "Hg15 mi
12:00 PM48 °FPartly sunny.14 mph54%29.81 "Hg15 mi
11:00 AM46 °FMostly cloudy.13 mph50%29.83 "Hg15 mi
10:00 AM45 °FOvercast.10 mph49%29.84 "Hg15 mi
Weather by CustomWeather, © 2015

See weather overviewHow to use our weather pages